This demonstration page uses our WeatherBlox Daily Observations layout. Learn more.

Left ArrowRight Arrow

Hourly Observations for January 8, 2017

Temp ( °F °C ) Dew Point ( °F °C ) Humidity (%) Winds ( mph kmh ) Pressure ( in mb ) Visibility ( mi km ) Precip ( " mm )
12:59 am 00:59 Clear 20 -6.7 8 -13.3 60 60 NNW 23 37 30.34 1028 10 16 0.00 0.00
1:59 am 01:59 Clear 21 -6.1 6 -14.4 52 52 NNW 26 43 30.37 1028 10 16 0.00 0.00
2:59 am 02:59 Mostly Clear 20 -6.7 6 -14.4 55 55 NNW 21 33 30.40 1030 10 16 0.00 0.00
3:59 am 03:59 Mostly Clear 19 -7.2 7 -13.9 59 59 NNW 26 43 30.40 1030 10 16 0.00 0.00
4:59 am 04:59 Mostly Clear 19 -7.2 5 -15 54 54 NNW 24 39 30.43 1031 10 16 0.00 0.00
5:59 am 05:59 Mostly Clear 19 -7.2 5 -15 54 54 NNW 17 28 30.46 1032 10 16 0.00 0.00
6:59 am 06:59 Mostly Clear 18 -7.8 5 -15 57 57 NNW 18 30 30.49 1033 10 16 0.00 0.00
7:59 am 07:59 Mostly Sunny 17 -8.3 4 -15.6 56 56 NW 22 35 30.52 1034 8 13 0.00 0.00
8:59 am 08:59 Mostly Sunny 18 -7.8 3 -16.1 52 52 NW 20 31 30.54 1034 10 16 0.00 0.00
9:59 am 09:59 Mostly Sunny 19 -7.2 3 -16.1 49 49 NW 24 39 30.56 1035 9 14 0.00 0.00
10:59 am 10:59 Mostly Sunny 20 -6.7 3 -16.1 48 48 NW 25 41 30.56 1035 9 14 0.00 0.00
11:59 am 11:59 Mostly Sunny 21 -6.1 3 -16.1 45 45 NW 22 35 30.54 1034 10 16 0.00 0.00
12:59 pm 12:59 Mostly Sunny 23 -5 3 -16.1 42 42 NW 22 35 30.53 1034 10 16 0.00 0.00
1:59 pm 13:59 Mostly Sunny 23 -5 4 -15.6 44 44 NW 22 35 30.54 1034 10 16 0.00 0.00
2:59 pm 14:59 Mostly Sunny 23 -5 4 -15.6 44 44 NW 21 33 30.56 1035 10 16 0.00 0.00
3:59 pm 15:59 Mostly Sunny 23 -5 4 -15.6 44 44 NW 13 20 30.58 1036 10 16 0.00 0.00
4:59 pm 16:59 Mostly Sunny 23 -5 4 -15.6 44 44 WNW 12 19 30.60 1036 10 16 0.00 0.00
5:59 pm 17:59 Mostly Clear 22 -5.6 3 -16.1 44 44 NW 14 22 30.63 1037 10 16 0.00 0.00
6:59 pm 18:59 Mostly Clear 22 -5.6 5 -15 48 48 NW 12 19 30.65 1038 10 16 0.00 0.00
7:59 pm 19:59 Clear 22 -5.6 3 -16.1 44 44 NW 14 22 30.68 1039 10 16 0.00 0.00
8:59 pm 20:59 Clear 23 -5 3 -16.1 42 42 NNW 15 24 30.71 1040 10 16 0.00 0.00
9:59 pm 21:59 Clear 22 -5.6 4 -15.6 46 46 NNW 14 22 30.74 1041 10 16 0.00 0.00
10:59 pm 22:59 Clear 22 -5.6 3 -16.1 44 44 N 16 26 30.74 1041 10 16 0.00 0.00
11:59 pm 23:59 Clear 21 -6.1 3 -16.1 45 45 N 18 30 30.75 1041 10 16 0.00 0.00

Powered by AerisWeather